Regional Weather Roundup
Issued by NWS

Home | Current Version | Previous Version | Graphics & Text | Print | Product List | Glossary On
Versions: 1 2 3 4 5 6 7 8 9 10 11 12 13 14 15 16 17 18 19 20 21 22 23 24 25 26 27 28 29 30 31 32 33 34 35 36 37 38 39 40 41 42 43 44 45 46 47 48 49
000
ASUS45 KSLC 280310
RWRUT

UTAH REGIONAL WEATHER ROUNDUP
NATIONAL WEATHER SERVICE SALT LAKE CITY UT
800 PM MST SAT DEC 27 2014

UTZ001>011-023>025-280400-

NORTHERN UTAH

CITY           SKY/WX    TMP DP  RH WIND       PRES   REMARKS
BRIGHAM CITY   CLOUDY    28  17  65 SW5       30.29F WCI  22
HILL AFB       CLOUDY    23  15  71 S8        30.26F WCI  13
LOGAN          CLOUDY    19  13  77 CALM      30.26F
OGDEN          CLOUDY    24  16  71 S9        30.27F WCI  14
PROVO AIRPORT  MOCLDY    21  12  68 S6        30.31F WCI  14
SALT LAKE CITY PTCLDY    25  14  63 S7        30.30S WCI  17
VERNAL         PTCLDY    13   7  77 W3        30.27F
WENDOVER       MOCLDY    27  16  63 NE3       30.27F
HEBER CITY     MOCLDY     7   3  85 CALM      30.25F
WEST JORDAN    CLEAR     21  18  86 S13       30.28F WCI   9

$$

UTZ012>022-026-027-280400-

SOUTHERN/CENTRAL UTAH

CITY           SKY/WX    TMP DP  RH WIND       PRES   REMARKS
BLANDING       MOCLDY    21  13  69 N7        30.35R WCI  13
BRYCE CANYON   MOCLDY    10   5  80 S3        30.22F
CEDAR CITY     PTCLDY    13   6  74 CALM      30.26F
DELTA          PTCLDY    17  13  84 E6        30.29F WCI   8
MILFORD        CLEAR     11   6  81 W9        30.28F WCI  -2
MOAB/CYNLANDS  PTCLDY    18   9  68 CALM      30.31S
PRICE          CLOUDY    22   8  55 E6        30.25R WCI  14
ST GEORGE      MOCLDY    32   5  32 CALM      30.36S
KANAB          MOCLDY    27  12  54 CALM      30.33S

$$

REGIONAL REPORTS     COLORADO/ARIZONA

CITY           SKY/WX    TMP DP  RH WIND       PRES   REMARKS
CRAIG, CO      PTCLDY     2  -2  83 CALM      30.24S
GRAND JUNCTION PTCLDY    16  12  84 CALM      30.31S
RIFLE          PTCLDY    11   4  73 S7        30.30R WCI   0
MONTROSE       PTCLDY    16   9  74 S7        30.31R WCI   6
CORTEZ         CLEAR     13   7  77 E6        30.28S WCI   4
PAGE, AZ       PTCLDY    32   9  38 S3        30.32R
GRAND CANYON   PTCLDY    20  11  68 NE3       30.28S
KINGMAN        CLEAR     26  11  52 SE6       30.31F WCI  19
FLAGSTAFF      CLEAR     16   7  67 CALM      30.25S

$$

REGIONAL REPORTS    NEVADA/IDAHO/WYOMING

CITY           SKY/WX    TMP DP  RH WIND       PRES   REMARKS
LAS VEGAS, NV  CLEAR     43   8  23 SW7       30.31F
ELY            PTCLDY    17   9  70 S8        30.24S WCI   7
ELKO           CLOUDY    26  18  71 W5        30.22F WCI  20
POCATELLO, ID  CLOUDY    26  19  74 S23G29    30.19F WCI  11
BURLEY         CLOUDY    29  16  58 S17       30.17F WCI  17
EVANSTON, WY   PTCLDY    12   6  77 SW16      30.13F WCI  -5
ROCK SPRINGS   CLOUDY    15   7  70 SW9       30.14S WCI   3

$$



USA.gov is the U.S. government's official web portal to all federal, state and local government web resources and services.